This is the latest recevied weather packets stored in our database for station/object SQ9IWE-13. If no packets are shown the sender has not sent any weather packets the latest 10 day(s).
| Time | Temp. | Humidity | Pressure | Rain* | Wind** | Luminosity | Snow |
|---|---|---|---|---|---|---|---|
| 1777914001 | 23.89° C | 41% | 1011.8 hPa | - | - | - | - |
| 1777913401 | 23.89° C | 39% | 1011.7 hPa | - | - | - | - |
| 1777912800 | 24.44° C | 37% | 1011.7 hPa | - | - | - | - |
| 1777912200 | 24.44° C | 35% | 1011.7 hPa | - | - | - | - |
| 1777911600 | 25° C | 35% | 1011.7 hPa | - | - | - | - |
| 1777911000 | 25° C | 34% | 1011.6 hPa | - | - | - | - |
| 1777910401 | 25° C | 35% | 1011.7 hPa | - | - | - | - |
| 1777909801 | 25° C | 36% | 1011.9 hPa | - | - | - | - |
| 1777909201 | 25° C | 37% | 1012 hPa | - | - | - | - |
| 1777908601 | 25° C | 36% | 1012 hPa | - | - | - | - |
| 1777908001 | 25° C | 37% | 1012.1 hPa | - | - | - | - |
| 1777907401 | 25° C | 36% | 1012.2 hPa | - | - | - | - |
| 1777906801 | 26.11° C | 36% | 1012.2 hPa | - | - | - | - |
| 1777906201 | 26.11° C | 36% | 1012.2 hPa | - | - | - | - |
| 1777905601 | 26.11° C | 36% | 1012.2 hPa | - | - | - | - |
| 1777905001 | 26.11° C | 38% | 1012.3 hPa | - | - | - | - |
| 1777904401 | 25.56° C | 37% | 1012.5 hPa | - | - | - | - |
| 1777903801 | 25.56° C | 37% | 1012.5 hPa | - | - | - | - |
| 1777902601 | 25.56° C | 37% | 1012.7 hPa | - | - | - | - |
| 1777902001 | 25.56° C | 35% | 1012.6 hPa | - | - | - | - |
| 1777901401 | 25.56° C | 35% | 1012.7 hPa | - | - | - | - |
| 1777900801 | 26.11° C | 35% | 1012.7 hPa | - | - | - | - |
| 1777900201 | 25.56° C | 34% | 1013 hPa | - | - | - | - |
| 1777899601 | 25.56° C | 35% | 1013.1 hPa | - | - | - | - |
| 1777899001 | 26.67° C | 34% | 1013.1 hPa | - | - | - | - |
* Rain since midnight (hover to see other rain measurements)
** Current wind speed in m/s (hover to see current wind gust speed)